| time (UTC) | temp F | wind direction | speed knots | gust knots | rain 1hr in | rain 24hr in | rain mn in | humidity % | barometer mb |
| 20260508174003 | 65 | 244 | 5.2 | 14.8 | 0.00 | 0.00 | 0.00 | 49 | 1010.4 |
| 20260508173503 | 66 | 237 | 5.2 | 14.8 | 0.00 | 0.00 | 0.00 | 47 | 1010.5 |
| 20260508173004 | 67 | 245 | 6.1 | 13.9 | 0.00 | 0.00 | 0.00 | 46 | 1010.6 |
| 20260508172504 | 67 | 236 | 6.1 | 13.9 | 0.00 | 0.00 | 0.00 | 45 | 1010.6 |
| 20260508172003 | 68 | 217 | 6.1 | 13.9 | 0.00 | 0.00 | 0.00 | 46 | 1010.7 |
| 20260508171503 | 68 | 220 | 7.0 | 15.6 | 0.00 | 0.00 | 0.00 | 45 | 1010.6 |
| 20260508171005 | 69 | 222 | 7.0 | 15.6 | 0.00 | 0.00 | 0.00 | 45 | 1010.6 |
| 20260508170504 | 69 | 216 | 6.1 | 13.9 | 0.00 | 0.00 | 0.00 | 45 | 1010.7 |
| 20260508170003 | 69 | 209 | 6.1 | 13.9 | 0.00 | 0.00 | 0.00 | 49 | 1010.7 |
| 20260508165504 | 68 | 215 | 5.2 | 13.0 | 0.00 | 0.00 | 0.00 | 48 | 1010.8 |
| 20260508165004 | 68 | 229 | 6.1 | 15.6 | 0.00 | 0.00 | 0.00 | 51 | 1010.9 |
| 20260508164504 | 67 | 230 | 7.0 | 15.6 | 0.00 | 0.00 | 0.00 | 50 | 1010.9 |
| 20260508164004 | 66 | 227 | 6.1 | 13.0 | 0.00 | 0.00 | 0.00 | 49 | 1011.0 |
| 20260508163503 | 66 | 222 | 6.1 | 13.9 | 0.00 | 0.00 | 0.00 | 47 | 1011.2 |
| 20260508163003 | 66 | 229 | 5.2 | 13.9 | 0.00 | 0.00 | 0.00 | 48 | 1011.2 |
| 20260508162503 | 66 | 246 | 7.8 | 14.8 | 0.00 | 0.00 | 0.00 | 47 | 1011.3 |
| 20260508162003 | 66 | 253 | 7.8 | 14.8 | 0.00 | 0.00 | 0.00 | 45 | 1011.4 |
| 20260508161504 | 66 | 254 | 7.8 | 19.1 | 0.00 | 0.00 | 0.00 | 47 | 1011.5 |
| 20260508161003 | 66 | 252 | 8.7 | 19.1 | 0.00 | 0.00 | 0.00 | 47 | 1011.4 |
| 20260508160503 | 66 | 245 | 8.7 | 17.4 | 0.00 | 0.00 | 0.00 | 46 | 1011.5 |
| 20260508160003 | 66 | 238 | 7.8 | 17.4 | 0.00 | 0.00 | 0.00 | 49 | 1011.5 |
| 20260508155504 | 65 | 242 | 8.7 | 16.5 | 0.00 | 0.00 | 0.00 | 48 | 1011.6 |
| 20260508155004 | 65 | 243 | 7.8 | 16.5 | 0.00 | 0.00 | 0.00 | 47 | 1011.6 |
| 20260508154503 | 65 | 246 | 7.0 | 20.0 | 0.00 | 0.00 | 0.00 | 48 | 1011.6 |
| 20260508154003 | 65 | 247 | 8.7 | 20.0 | 0.00 | 0.00 | 0.00 | 48 | 1011.5 |
| 20260508153503 | 65 | 247 | 7.8 | 16.5 | 0.00 | 0.00 | 0.00 | 49 | 1011.5 |
| 20260508153004 | 65 | 238 | 7.0 | 14.8 | 0.00 | 0.00 | 0.00 | 49 | 1011.6 |
| 20260508152504 | 64 | 231 | 6.1 | 13.0 | 0.00 | 0.00 | 0.00 | 48 | 1011.7 |
| 20260508152004 | 64 | 238 | 4.3 | 13.0 | 0.00 | 0.00 | 0.00 | 48 | 1011.7 |
| 20260508151503 | 65 | 246 | 5.2 | 17.4 | 0.00 | 0.00 | 0.00 | 49 | 1011.7 |
| 20260508151003 | 65 | 253 | 7.0 | 17.4 | 0.00 | 0.00 | 0.00 | 48 | 1011.7 |
| 20260508150503 | 65 | 257 | 7.0 | 17.4 | 0.00 | 0.00 | 0.00 | 49 | 1011.7 |
| 20260508150004 | 65 | 256 | 7.0 | 17.4 | 0.00 | 0.00 | 0.00 | 47 | 1011.7 |
| 20260508145503 | 65 | 253 | 6.1 | 13.9 | 0.00 | 0.00 | 0.00 | 48 | 1011.7 |
| 20260508145003 | 64 | 248 | 6.1 | 14.8 | 0.00 | 0.00 | 0.00 | 51 | 1011.8 |
| 20260508144505 | 64 | 249 | 7.0 | 14.8 | 0.00 | 0.00 | 0.00 | 51 | 1011.8 |
| 20260508144003 | 63 | 256 | 7.8 | 15.6 | 0.00 | 0.00 | 0.00 | 50 | 1011.9 |
| 20260508143503 | 63 | 257 | 9.6 | 18.2 | 0.00 | 0.00 | 0.00 | 50 | 1012.0 |
| 20260508143004 | 63 | 255 | 8.7 | 18.2 | 0.00 | 0.00 | 0.00 | 50 | 1012.1 |
| 20260508142504 | 62 | 261 | 6.1 | 15.6 | 0.00 | 0.00 | 0.00 | 51 | 1012.2 |
| 20260508142005 | 62 | 264 | 6.1 | 13.9 | 0.00 | 0.00 | 0.00 | 52 | 1012.2 |
| 20260508141503 | 62 | 264 | 5.2 | 13.9 | 0.00 | 0.00 | 0.00 | 53 | 1012.2 |
| 20260508141004 | 61 | 250 | 3.5 | 11.3 | 0.00 | 0.00 | 0.00 | 55 | 1012.3 |
| 20260508140503 | 60 | 239 | 5.2 | 11.3 | 0.00 | 0.00 | 0.00 | 54 | 1012.3 |
| 20260508140004 | 60 | 261 | 5.2 | 12.2 | 0.00 | 0.00 | 0.00 | 54 | 1012.3 |
| 20260508135505 | 60 | 266 | 4.3 | 12.2 | 0.00 | 0.00 | 0.00 | 55 | 1012.4 |
| 20260508135005 | 59 | 251 | 6.1 | 13.9 | 0.00 | 0.00 | 0.00 | 54 | 1012.5 |
| 20260508134503 | 59 | 250 | 6.1 | 13.9 | 0.00 | 0.00 | 0.00 | 53 | 1012.4 |
| 20260508134003 | 58 | 256 | 5.2 | 11.3 | 0.00 | 0.00 | 0.00 | 55 | 1012.4 |
| 20260508133504 | 58 | 251 | 5.2 | 13.0 | 0.00 | 0.00 | 0.00 | 56 | 1012.5 |
| 20260508133003 | 58 | 256 | 6.1 | 13.0 | 0.00 | 0.00 | 0.00 | 56 | 1012.5 |
| 20260508132504 | 57 | 264 | 6.1 | 14.8 | 0.00 | 0.00 | 0.00 | 56 | 1012.6 |
| 20260508132004 | 57 | 263 | 4.3 | 14.8 | 0.00 | 0.00 | 0.00 | 57 | 1012.6 |
| 20260508131503 | 56 | 265 | 4.3 | 10.4 | 0.00 | 0.00 | 0.00 | 58 | 1012.7 |
| 20260508131004 | 56 | 258 | 4.3 | 11.3 | 0.00 | 0.00 | 0.00 | 58 | 1012.7 |
| 20260508130504 | 56 | 251 | 5.2 | 13.9 | 0.00 | 0.00 | 0.00 | 58 | 1012.6 |
| 20260508130005 | 55 | 259 | 4.3 | 13.9 | 0.00 | 0.00 | 0.00 | 58 | 1012.6 |
| 20260508125504 | 55 | 262 | 3.5 | 9.6 | 0.00 | 0.00 | 0.00 | 60 | 1012.6 |
| 20260508125004 | 54 | 252 | 3.5 | 9.6 | 0.00 | 0.00 | 0.00 | 61 | 1012.6 |
| 20260508124504 | 54 | 252 | 4.3 | 9.6 | 0.00 | 0.00 | 0.00 | 60 | 1012.6 |
| 20260508124003 | 54 | 247 | 6.1 | 12.2 | 0.00 | 0.00 | 0.00 | 60 | 1012.4 |
| 20260508123504 | 53 | 239 | 5.2 | 12.2 | 0.00 | 0.00 | 0.00 | 61 | 1012.5 |
| 20260508123004 | 53 | 230 | 4.3 | 13.0 | 0.00 | 0.00 | 0.00 | 62 | 1012.3 |
| 20260508122504 | 52 | 243 | 5.2 | 13.0 | 0.00 | 0.00 | 0.00 | 63 | 1012.2 |
| 20260508122003 | 52 | 255 | 6.1 | 17.4 | 0.00 | 0.00 | 0.00 | 63 | 1012.3 |
| 20260508121504 | 51 | 248 | 4.3 | 17.4 | 0.00 | 0.00 | 0.00 | 64 | 1012.5 |
| 20260508121004 | 51 | 233 | 4.3 | 10.4 | 0.00 | 0.00 | 0.00 | 65 | 1012.4 |
| 20260508120505 | 50 | 233 | 4.3 | 10.4 | 0.00 | 0.00 | 0.00 | 65 | 1012.4 |
| 20260508120003 | 50 | 233 | 4.3 | 10.4 | 0.00 | 0.00 | 0.00 | 66 | 1012.3 |
| 20260508115505 | 50 | 233 | 4.3 | 10.4 | 0.00 | 0.00 | 0.00 | 67 | 1012.4 |
| 20260508115005 | 49 | 233 | 4.3 | 10.4 | 0.00 | 0.00 | 0.00 | 67 | 1012.4 |
| 20260508114504 | 49 | 233 | 4.3 | 10.4 | 0.00 | 0.00 | 0.00 | 67 | 1012.3 |
| 20260508114003 | 49 | 233 | 4.3 | 10.4 | 0.00 | 0.00 | 0.00 | 67 | 1012.3 |
| 20260508113504 | 49 | 233 | 4.3 | 10.4 | 0.00 | 0.00 | 0.00 | 67 | 1012.2 |
| 20260508113005 | 48 | 233 | 4.3 | 10.4 | 0.00 | 0.00 | 0.00 | 67 | 1012.3 |
| 20260508112504 | 48 | 233 | 4.3 | 10.4 | 0.00 | 0.00 | 0.00 | 67 | 1012.2 |
| 20260508112003 | 48 | 233 | 4.3 | 10.4 | 0.00 | 0.00 | 0.00 | 68 | 1012.2 |
| 20260508111503 | 48 | 233 | 4.3 | 10.4 | 0.00 | 0.00 | 0.00 | 68 | 1012.2 |
| 20260508111003 | 48 | 233 | 4.3 | 10.4 | 0.00 | 0.00 | 0.00 | 68 | 1012.2 |
| 20260508110505 | 48 | 233 | 4.3 | 10.4 | 0.00 | 0.00 | 0.00 | 68 | 1012.2 |
| 20260508110004 | 48 | 233 | 4.3 | 10.4 | 0.00 | 0.00 | 0.00 | 68 | 1012.2 |
| 20260508105503 | 48 | 233 | 4.3 | 10.4 | 0.00 | 0.00 | 0.00 | 68 | 1012.1 |
| 20260508105004 | 48 | 233 | 4.3 | 10.4 | 0.00 | 0.00 | 0.00 | 68 | 1012.1 |
| 20260508104504 | 48 | 233 | 4.3 | 10.4 | 0.00 | 0.00 | 0.00 | 68 | 1012.0 |
| 20260508104003 | 48 | 233 | 4.3 | 10.4 | 0.00 | 0.00 | 0.00 | 67 | 1012.0 |
| 20260508103504 | 48 | 233 | 4.3 | 10.4 | 0.00 | 0.00 | 0.00 | 67 | 1012.0 |
| 20260508103004 | 49 | 233 | 4.3 | 10.4 | 0.00 | 0.00 | 0.00 | 67 | 1012.0 |
| 20260508102504 | 49 | 233 | 4.3 | 10.4 | 0.00 | 0.00 | 0.00 | 66 | 1012.0 |
| 20260508102005 | 49 | 233 | 4.3 | 10.4 | 0.00 | 0.00 | 0.00 | 66 | 1012.0 |
| 20260508101505 | 49 | 233 | 4.3 | 10.4 | 0.00 | 0.00 | 0.00 | 66 | 1012.0 |
| 20260508101004 | 50 | 233 | 4.3 | 10.4 | 0.00 | 0.00 | 0.00 | 66 | 1012.0 |
| 20260508100503 | 50 | 233 | 4.3 | 10.4 | 0.00 | 0.00 | 0.00 | 65 | 1011.9 |
| 20260508100003 | 50 | 233 | 4.3 | 10.4 | 0.00 | 0.00 | 0.00 | 65 | 1012.1 |
| 20260508095503 | 50 | 233 | 4.3 | 10.4 | 0.00 | 0.00 | 0.00 | 64 | 1012.1 |
| 20260508095006 | 50 | 233 | 4.3 | 10.4 | 0.00 | 0.00 | 0.00 | 64 | 1012.0 |
| 20260508094505 | 51 | 233 | 4.3 | 10.4 | 0.00 | 0.00 | 0.00 | 63 | 1012.1 |
| 20260508094004 | 51 | 233 | 4.3 | 10.4 | 0.00 | 0.00 | 0.00 | 63 | 1012.0 |
| 20260508093503 | 51 | 233 | 4.3 | 10.4 | 0.00 | 0.00 | 0.00 | 62 | 1012.1 |
| 20260508093003 | 51 | 233 | 4.3 | 10.4 | 0.00 | 0.00 | 0.00 | 62 | 1012.0 |
| 20260508092504 | 52 | 233 | 4.3 | 10.4 | 0.00 | 0.00 | 0.00 | 61 | 1012.1 |
| 20260508092005 | 52 | 233 | 4.3 | 10.4 | 0.00 | 0.00 | 0.00 | 61 | 1012.1 |
| 20260508091504 | 52 | 233 | 4.3 | 10.4 | 0.00 | 0.00 | 0.00 | 60 | 1012.1 |
| 20260508091003 | 52 | 233 | 4.3 | 10.4 | 0.00 | 0.00 | 0.00 | 60 | 1012.0 |
| 20260508090505 | 52 | 233 | 4.3 | 10.4 | 0.00 | 0.00 | 0.00 | 60 | 1012.0 |
| 20260508090003 | 53 | 233 | 4.3 | 10.4 | 0.00 | 0.00 | 0.00 | 60 | 1012.1 |
| 20260508085503 | 53 | 233 | 4.3 | 10.4 | 0.00 | 0.00 | 0.00 | 60 | 1012.0 |
| 20260508085005 | 53 | 233 | 4.3 | 10.4 | 0.00 | 0.00 | 0.00 | 60 | 1012.1 |
| 20260508084505 | 53 | 233 | 4.3 | 10.4 | 0.00 | 0.00 | 0.00 | 60 | 1012.3 |
| 20260508084003 | 53 | 233 | 4.3 | 10.4 | 0.00 | 0.00 | 0.00 | 60 | 1012.3 |
| 20260508083505 | 53 | 233 | 4.3 | 10.4 | 0.00 | 0.00 | 0.00 | 60 | 1012.3 |
| 20260508083003 | 53 | 233 | 4.3 | 10.4 | 0.00 | 0.00 | 0.00 | 60 | 1012.3 |
| 20260508082503 | 53 | 233 | 4.3 | 10.4 | 0.00 | 0.00 | 0.00 | 60 | 1012.4 |
| 20260508082004 | 53 | 233 | 4.3 | 10.4 | 0.00 | 0.00 | 0.00 | 59 | 1012.3 |
| 20260508081504 | 53 | 233 | 4.3 | 10.4 | 0.00 | 0.00 | 0.00 | 60 | 1012.4 |
| 20260508081003 | 53 | 233 | 4.3 | 10.4 | 0.00 | 0.00 | 0.00 | 59 | 1012.5 |
| 20260508080503 | 54 | 233 | 4.3 | 10.4 | 0.00 | 0.00 | 0.00 | 59 | 1012.6 |
| 20260508080003 | 54 | 233 | 4.3 | 10.4 | 0.00 | 0.00 | 0.00 | 59 | 1012.7 |
| 20260508075503 | 54 | 233 | 4.3 | 10.4 | 0.00 | 0.00 | 0.00 | 59 | 1012.7 |
| 20260508075003 | 54 | 233 | 4.3 | 10.4 | 0.00 | 0.00 | 0.00 | 59 | 1012.7 |
| 20260508074504 | 54 | 233 | 4.3 | 10.4 | 0.00 | 0.00 | 0.00 | 59 | 1012.8 |
| 20260508074004 | 54 | 233 | 4.3 | 10.4 | 0.00 | 0.00 | 0.00 | 58 | 1012.7 |
| 20260508073503 | 54 | 233 | 4.3 | 10.4 | 0.00 | 0.00 | 0.00 | 58 | 1012.6 |
| 20260508073003 | 54 | 233 | 4.3 | 10.4 | 0.00 | 0.00 | 0.00 | 58 | 1012.5 |
| 20260508072503 | 54 | 233 | 4.3 | 10.4 | 0.00 | 0.00 | 0.00 | 57 | 1012.6 |
| 20260508072004 | 54 | 233 | 4.3 | 10.4 | 0.00 | 0.00 | 0.00 | 56 | 1012.7 |
| 20260508071504 | 53 | 233 | 4.3 | 10.4 | 0.00 | 0.00 | 0.00 | 57 | 1012.6 |
| 20260508071003 | 53 | 233 | 4.3 | 10.4 | 0.00 | 0.00 | 0.00 | 57 | 1012.7 |
| 20260508070503 | 53 | 233 | 4.3 | 10.4 | 0.00 | 0.00 | 0.00 | 57 | 1012.7 |
| 20260508070003 | 53 | 233 | 4.3 | 10.4 | 0.00 | 0.00 | 0.00 | 57 | 1012.6 |
| 20260508065504 | 52 | 233 | 4.3 | 10.4 | 0.00 | 0.00 | 0.00 | 57 | 1012.6 |
| 20260508065005 | 52 | 233 | 4.3 | 10.4 | 0.00 | 0.00 | 0.00 | 59 | 1012.6 |
| 20260508064504 | 52 | 233 | 4.3 | 10.4 | 0.00 | 0.00 | 0.00 | 59 | 1012.7 |
| 20260508064003 | 52 | 239 | 4.3 | 10.4 | 0.00 | 0.00 | 0.00 | 59 | 1012.8 |
| 20260508063503 | 51 | 241 | 4.3 | 10.4 | 0.00 | 0.00 | 0.00 | 60 | 1012.9 |
| 20260508063003 | 51 | 243 | 2.6 | 10.4 | 0.00 | 0.00 | 0.00 | 63 | 1012.9 |
| 20260508062504 | 51 | 238 | 3.5 | 10.4 | 0.00 | 0.00 | 0.00 | 63 | 1012.9 |
| 20260508062004 | 51 | 239 | 3.5 | 10.4 | 0.00 | 0.00 | 0.00 | 63 | 1013.0 |
| 20260508061503 | 51 | 246 | 2.6 | 7.8 | 0.00 | 0.00 | 0.00 | 65 | 1013.0 |
| 20260508061003 | 50 | 245 | 2.6 | 7.0 | 0.00 | 0.00 | 0.00 | 65 | 1013.0 |
| 20260508060503 | 50 | 241 | 1.7 | 5.2 | 0.00 | 0.00 | 0.00 | 66 | 1013.0 |
| 20260508060003 | 50 | 241 | 1.7 | 4.3 | 0.00 | 0.00 | 0.00 | 67 | 1013.0 |
| 20260508055503 | 50 | 241 | 2.6 | 5.2 | 0.00 | 0.00 | 0.00 | 67 | 1012.9 |
| 20260508055004 | 50 | 241 | 2.6 | 6.1 | 0.00 | 0.00 | 0.00 | 69 | 1012.9 |
| 20260508054504 | 50 | 237 | 2.6 | 6.1 | 0.00 | 0.00 | 0.00 | 69 | 1012.9 |
| 20260508054005 | 50 | 231 | 1.7 | 5.2 | 0.00 | 0.00 | 0.00 | 70 | 1012.9 |
| 20260508053503 | 50 | 232 | 1.7 | 5.2 | 0.00 | 0.00 | 0.00 | 71 | 1012.9 |
| 20260508053003 | 50 | 233 | 1.7 | 4.3 | 0.00 | 0.00 | 0.00 | 71 | 1012.9 |
| 20260508052504 | 50 | 232 | 1.7 | 5.2 | 0.00 | 0.00 | 0.00 | 71 | 1012.8 |
| 20260508052004 | 50 | 232 | 2.6 | 5.2 | 0.00 | 0.00 | 0.00 | 71 | 1012.8 |
| 20260508051504 | 50 | 235 | 2.6 | 5.2 | 0.00 | 0.00 | 0.00 | 71 | 1012.8 |
| 20260508051003 | 50 | 239 | 1.7 | 7.0 | 0.00 | 0.00 | 0.00 | 72 | 1012.8 |
| 20260508050503 | 50 | 243 | 1.7 | 7.0 | 0.00 | 0.00 | 0.00 | 72 | 1012.9 |
| 20260508050006 | 50 | 239 | 1.7 | 5.2 | 0.00 | 0.00 | 0.00 | 72 | 1012.9 |
| 20260508045503 | 50 | 233 | 2.6 | 5.2 | 0.00 | 0.00 | 0.00 | 72 | 1013.0 |
| 20260508045003 | 50 | 228 | 1.7 | 4.3 | 0.00 | 0.00 | 0.00 | 72 | 1013.0 |
| 20260508044504 | 50 | 227 | 2.6 | 5.2 | 0.00 | 0.00 | 0.00 | 72 | 1012.9 |
| 20260508044004 | 50 | 226 | 2.6 | 5.2 | 0.00 | 0.00 | 0.00 | 72 | 1012.8 |
| 20260508043504 | 50 | 224 | 1.7 | 5.2 | 0.00 | 0.00 | 0.00 | 72 | 1012.9 |
| 20260508043005 | 50 | 224 | 1.7 | 5.2 | 0.00 | 0.00 | 0.00 | 73 | 1013.0 |
| 20260508042503 | 50 | 224 | 2.6 | 6.1 | 0.00 | 0.00 | 0.00 | 73 | 1013.0 |
| 20260508042004 | 50 | 229 | 2.6 | 7.0 | 0.00 | 0.00 | 0.00 | 73 | 1012.9 |
| 20260508041504 | 50 | 238 | 2.6 | 7.0 | 0.00 | 0.00 | 0.00 | 74 | 1012.8 |
| 20260508041004 | 50 | 242 | 2.6 | 5.2 | 0.00 | 0.00 | 0.00 | 74 | 1012.9 |
| 20260508040504 | 50 | 241 | 1.7 | 5.2 | 0.00 | 0.00 | 0.00 | 75 | 1012.9 |
| 20260508040003 | 50 | 241 | 1.7 | 5.2 | 0.00 | 0.00 | 0.00 | 75 | 1012.9 |
| 20260508035504 | 50 | 240 | 1.7 | 5.2 | 0.00 | 0.00 | 0.00 | 75 | 1012.8 |
| 20260508035003 | 50 | 241 | 1.7 | 5.2 | 0.00 | 0.00 | 0.00 | 75 | 1012.9 |
| 20260508034504 | 50 | 243 | 2.6 | 5.2 | 0.00 | 0.00 | 0.00 | 76 | 1012.8 |
| 20260508034003 | 50 | 241 | 2.6 | 6.1 | 0.00 | 0.00 | 0.00 | 76 | 1012.8 |
| 20260508033505 | 50 | 237 | 2.6 | 6.1 | 0.00 | 0.00 | 0.00 | 76 | 1012.8 |
| 20260508033005 | 50 | 238 | 2.6 | 5.2 | 0.00 | 0.00 | 0.00 | 76 | 1012.9 |
| 20260508032503 | 50 | 243 | 2.6 | 5.2 | 0.00 | 0.00 | 0.00 | 76 | 1012.9 |
| 20260508032004 | 50 | 246 | 1.7 | 5.2 | 0.00 | 0.00 | 0.00 | 76 | 1012.9 |
| 20260508031504 | 50 | 246 | 1.7 | 5.2 | 0.00 | 0.00 | 0.00 | 75 | 1013.0 |
| 20260508031003 | 49 | 245 | 2.6 | 7.0 | 0.00 | 0.00 | 0.00 | 75 | 1013.1 |
| 20260508030503 | 49 | 245 | 2.6 | 7.0 | 0.00 | 0.00 | 0.00 | 74 | 1013.0 |
| 20260508030005 | 49 | 245 | 2.6 | 5.2 | 0.00 | 0.00 | 0.00 | 74 | 1013.0 |
| 20260508025503 | 49 | 247 | 2.6 | 5.2 | 0.00 | 0.00 | 0.00 | 74 | 1013.0 |
| 20260508025004 | 50 | 250 | 2.6 | 5.2 | 0.00 | 0.00 | 0.00 | 74 | 1013.0 |
| 20260508024504 | 50 | 252 | 2.6 | 4.3 | 0.00 | 0.00 | 0.00 | 74 | 1013.0 |
| 20260508024003 | 50 | 252 | 1.7 | 5.2 | 0.00 | 0.00 | 0.00 | 74 | 1012.9 |
| 20260508023503 | 50 | 252 | 2.6 | 5.2 | 0.00 | 0.00 | 0.00 | 74 | 1012.9 |
| 20260508023004 | 50 | 259 | 2.6 | 5.2 | 0.00 | 0.00 | 0.00 | 73 | 1012.8 |
| 20260508022504 | 50 | 271 | 1.7 | 4.3 | 0.00 | 0.00 | 0.00 | 73 | 1012.8 |
| 20260508022005 | 50 | 281 | 1.7 | 3.5 | 0.00 | 0.00 | 0.00 | 74 | 1012.8 |
| 20260508021503 | 50 | 281 | 1.7 | 3.5 | 0.00 | 0.00 | 0.00 | 73 | 1012.7 |
| 20260508021003 | 50 | 281 | 1.7 | 3.5 | 0.00 | 0.00 | 0.00 | 73 | 1012.7 |
| 20260508020504 | 50 | 281 | 1.7 | 3.5 | 0.00 | 0.00 | 0.00 | 72 | 1012.8 |
| 20260508020004 | 51 | 298 | 1.7 | 3.5 | 0.00 | 0.00 | 0.00 | 72 | 1012.8 |
| 20260508015504 | 51 | 316 | 1.7 | 3.5 | 0.00 | 0.00 | 0.00 | 72 | 1012.6 |
| 20260508015004 | 51 | 321 | 1.7 | 2.6 | 0.00 | 0.00 | 0.00 | 71 | 1012.6 |
| 20260508014504 | 51 | 321 | 0.9 | 3.5 | 0.00 | 0.00 | 0.00 | 70 | 1012.6 |
| 20260508014003 | 51 | 321 | 0.9 | 3.5 | 0.00 | 0.00 | 0.00 | 70 | 1012.5 |
| 20260508013504 | 52 | 321 | 0.9 | 2.6 | 0.00 | 0.00 | 0.00 | 69 | 1012.5 |
| 20260508013004 | 52 | 320 | 0.0 | 2.6 | 0.00 | 0.00 | 0.00 | 68 | 1012.4 |
| 20260508012503 | 52 | 321 | 0.9 | 3.5 | 0.00 | 0.00 | 0.00 | 68 | 1012.3 |
| 20260508012004 | 52 | 321 | 0.9 | 3.5 | 0.00 | 0.00 | 0.00 | 67 | 1012.4 |
| 20260508011503 | 53 | 321 | 0.9 | 2.6 | 0.00 | 0.00 | 0.00 | 66 | 1012.5 |
| 20260508011004 | 53 | 321 | 0.9 | 2.6 | 0.00 | 0.00 | 0.00 | 65 | 1012.4 |
| 20260508010504 | 53 | 321 | 0.9 | 2.6 | 0.00 | 0.00 | 0.00 | 65 | 1012.4 |
| 20260508010004 | 54 | 320 | 0.0 | 1.7 | 0.00 | 0.00 | 0.00 | 64 | 1012.5 |
| 20260508005503 | 54 | 321 | 0.9 | 1.7 | 0.00 | 0.00 | 0.00 | 64 | 1012.6 |
| 20260508005004 | 54 | 321 | 0.0 | 1.7 | 0.00 | 0.00 | 0.00 | 63 | 1012.5 |
| 20260508004504 | 54 | 320 | 0.0 | 1.7 | 0.00 | 0.00 | 0.00 | 63 | 1012.5 |
| 20260508004005 | 54 | 321 | 0.9 | 3.5 | 0.00 | 0.00 | 0.00 | 63 | 1012.7 |
| 20260508003504 | 54 | 321 | 0.9 | 3.5 | 0.00 | 0.00 | 0.00 | 63 | 1012.8 |
| 20260508003004 | 54 | 321 | 0.9 | 3.5 | 0.00 | 0.00 | 0.00 | 64 | 1012.9 |
| 20260508002503 | 54 | 321 | 0.9 | 3.5 | 0.00 | 0.00 | 0.00 | 63 | 1012.8 |
| 20260508002003 | 54 | 321 | 0.9 | 3.5 | 0.00 | 0.00 | 0.00 | 62 | 1012.9 |
| 20260508001505 | 54 | 321 | 0.0 | 2.6 | 0.00 | 0.00 | 0.00 | 62 | 1012.9 |
| 20260508001003 | 55 | 321 | 0.9 | 3.5 | 0.00 | 0.00 | 0.00 | 62 | 1012.8 |
| 20260508000503 | 55 | 321 | 0.9 | 3.5 | 0.00 | 0.00 | 0.00 | 62 | 1012.8 |
| 20260508000003 | 55 | 321 | 0.9 | 3.5 | 0.00 | 0.00 | 0.00 | 61 | 1012.9 |
| 20260507235504 | 55 | 321 | 0.9 | 3.5 | 0.00 | 0.00 | 0.00 | 61 | 1013.0 |
| 20260507235003 | 55 | 321 | 0.9 | 2.6 | 0.00 | 0.00 | 0.00 | 62 | 1012.9 |
| 20260507234503 | 55 | 324 | 0.9 | 7.0 | 0.00 | 0.00 | 0.00 | 61 | 1012.9 |
| 20260507234003 | 55 | 325 | 0.9 | 7.0 | 0.00 | 0.00 | 0.00 | 61 | 1013.0 |
| 20260507233505 | 55 | 330 | 0.0 | 2.6 | 0.00 | 0.00 | 0.00 | 61 | 1013.0 |
| 20260507233004 | 55 | 325 | 0.9 | 8.7 | 0.00 | 0.00 | 0.00 | 61 | 1012.9 |
| 20260507232504 | 55 | 325 | 2.6 | 8.7 | 0.00 | 0.00 | 0.00 | 61 | 1012.9 |
| 20260507232003 | 55 | 324 | 2.6 | 8.7 | 0.00 | 0.00 | 0.00 | 60 | 1013.1 |
| 20260507231503 | 56 | 317 | 3.5 | 13.9 | 0.00 | 0.00 | 0.00 | 59 | 1013.3 |
| 20260507231004 | 56 | 316 | 3.5 | 13.9 | 0.00 | 0.00 | 0.00 | 57 | 1013.3 |
| 20260507230504 | 57 | 321 | 3.5 | 17.4 | 0.00 | 0.00 | 0.00 | 55 | 1013.3 |
| 20260507230004 | 58 | 312 | 5.2 | 17.4 | 0.00 | 0.00 | 0.00 | 50 | 1013.3 |
| 20260507225504 | 60 | 281 | 7.8 | 20.9 | 0.00 | 0.00 | 0.00 | 43 | 1013.2 |
| 20260507225004 | 60 | 272 | 8.7 | 24.3 | 0.00 | 0.00 | 0.00 | 42 | 1013.1 |
| 20260507224505 | 60 | 289 | 8.7 | 24.3 | 0.00 | 0.00 | 0.00 | 37 | 1013.0 |
| 20260507224003 | 61 | 292 | 5.2 | 16.5 | 0.00 | 0.00 | 0.00 | 36 | 1012.8 |
| 20260507223504 | 61 | 271 | 4.3 | 9.6 | 0.00 | 0.00 | 0.00 | 36 | 1012.8 |
| 20260507223005 | 61 | 268 | 4.3 | 9.6 | 0.00 | 0.00 | 0.00 | 33 | 1012.6 |
| 20260507222505 | 61 | 281 | 5.2 | 12.2 | 0.00 | 0.00 | 0.00 | 35 | 1012.6 |
| 20260507222003 | 61 | 281 | 6.1 | 12.2 | 0.00 | 0.00 | 0.00 | 33 | 1012.5 |
| 20260507221504 | 62 | 273 | 7.0 | 13.9 | 0.00 | 0.00 | 0.00 | 32 | 1012.4 |
| 20260507221005 | 62 | 271 | 7.0 | 13.9 | 0.00 | 0.00 | 0.00 | 32 | 1012.3 |
| 20260507220503 | 62 | 253 | 5.2 | 16.5 | 0.00 | 0.00 | 0.00 | 33 | 1012.3 |
| 20260507220003 | 62 | 237 | 3.5 | 16.5 | 0.00 | 0.00 | 0.00 | 34 | 1012.3 |
| 20260507215504 | 62 | 247 | 3.5 | 9.6 | 0.00 | 0.00 | 0.00 | 35 | 1012.3 |
| 20260507215003 | 62 | 247 | 4.3 | 9.6 | 0.00 | 0.00 | 0.00 | 31 | 1012.3 |
| 20260507214503 | 62 | 252 | 4.3 | 10.4 | 0.00 | 0.00 | 0.00 | 31 | 1012.3 |
| 20260507214005 | 63 | 268 | 4.3 | 10.4 | 0.00 | 0.00 | 0.00 | 31 | 1012.2 |
| 20260507213503 | 63 | 284 | 4.3 | 10.4 | 0.00 | 0.00 | 0.00 | 32 | 1012.3 |
| 20260507213004 | 63 | 270 | 7.0 | 14.8 | 0.00 | 0.00 | 0.00 | 31 | 1012.3 |
| 20260507212504 | 63 | 261 | 7.8 | 14.8 | 0.00 | 0.00 | 0.00 | 31 | 1012.2 |
| 20260507212003 | 63 | 264 | 6.1 | 13.9 | 0.00 | 0.00 | 0.00 | 32 | 1012.3 |
| 20260507211503 | 63 | 262 | 6.1 | 13.9 | 0.00 | 0.00 | 0.00 | 31 | 1012.3 |
| 20260507211003 | 63 | 257 | 6.1 | 14.8 | 0.00 | 0.00 | 0.00 | 30 | 1012.4 |
| 20260507210504 | 64 | 263 | 7.0 | 14.8 | 0.00 | 0.00 | 0.00 | 29 | 1012.4 |
| 20260507210004 | 65 | 264 | 5.2 | 14.8 | 0.00 | 0.00 | 0.00 | 28 | 1012.4 |
| 20260507205503 | 65 | 244 | 5.2 | 12.2 | 0.00 | 0.01 | 0.00 | 30 | 1012.4 |
| 20260507205004 | 65 | 244 | 3.5 | 12.2 | 0.00 | 0.01 | 0.00 | 31 | 1012.4 |
| 20260507204504 | 64 | 276 | 3.5 | 7.8 | 0.00 | 0.01 | 0.00 | 34 | 1012.5 |
| 20260507204003 | 64 | 265 | 5.2 | 9.6 | 0.00 | 0.01 | 0.00 | 34 | 1012.5 |
| 20260507203503 | 63 | 265 | 5.2 | 13.0 | 0.00 | 0.01 | 0.00 | 32 | 1012.7 |
| 20260507203004 | 63 | 275 | 5.2 | 14.8 | 0.00 | 0.01 | 0.00 | 32 | 1012.7 |
| 20260507202504 | 63 | 279 | 4.3 | 14.8 | 0.00 | 0.01 | 0.00 | 33 | 1012.8 |
| 20260507202004 | 64 | 268 | 3.5 | 9.6 | 0.00 | 0.01 | 0.00 | 31 | 1012.9 |
| 20260507201503 | 64 | 248 | 2.6 | 8.7 | 0.00 | 0.01 | 0.00 | 31 | 1012.9 |
| 20260507201003 | 64 | 256 | 3.5 | 8.7 | 0.00 | 0.01 | 0.00 | 33 | 1013.0 |
| 20260507200504 | 64 | 255 | 5.2 | 12.2 | 0.00 | 0.01 | 0.00 | 37 | 1013.1 |
| 20260507200004 | 64 | 256 | 4.3 | 12.2 | 0.00 | 0.01 | 0.00 | 33 | 1013.2 |
| 20260507195503 | 63 | 275 | 3.5 | 11.3 | 0.00 | 0.01 | 0.00 | 37 | 1013.2 |
| 20260507195003 | 63 | 272 | 1.7 | 11.3 | 0.00 | 0.01 | 0.00 | 33 | 1013.3 |
| 20260507194505 | 62 | 268 | 2.6 | 8.7 | 0.00 | 0.01 | 0.00 | 34 | 1013.3 |
| 20260507194004 | 62 | 274 | 4.3 | 8.7 | 0.00 | 0.01 | 0.00 | 33 | 1013.4 |
| 20260507193503 | 63 | 295 | 5.2 | 12.2 | 0.00 | 0.01 | 0.00 | 33 | 1013.5 |
| 20260507193003 | 63 | 281 | 5.2 | 13.0 | 0.00 | 0.01 | 0.00 | 32 | 1013.5 |
| 20260507192503 | 63 | 262 | 4.3 | 13.0 | 0.00 | 0.01 | 0.00 | 35 | 1013.6 |
| 20260507192004 | 63 | 267 | 3.5 | 7.8 | 0.00 | 0.01 | 0.00 | 33 | 1013.5 |
| 20260507191503 | 64 | 276 | 4.3 | 9.6 | 0.00 | 0.01 | 0.00 | 33 | 1013.6 |
| 20260507191003 | 63 | 267 | 5.2 | 12.2 | 0.00 | 0.01 | 0.00 | 36 | 1013.8 |
| 20260507190503 | 63 | 269 | 4.3 | 12.2 | 0.00 | 0.01 | 0.00 | 35 | 1013.9 |
| 20260507190006 | 63 | 279 | 3.5 | 8.7 | 0.00 | 0.01 | 0.00 | 35 | 1013.9 |
| 20260507185503 | 62 | 289 | 4.3 | 13.0 | 0.00 | 0.01 | 0.00 | 35 | 1014.0 |
| 20260507185004 | 62 | 296 | 5.2 | 13.0 | 0.00 | 0.01 | 0.00 | 36 | 1014.0 |
| 20260507184504 | 62 | 300 | 4.3 | 11.3 | 0.00 | 0.01 | 0.00 | 35 | 1014.0 |
| 20260507184004 | 62 | 279 | 3.5 | 11.3 | 0.00 | 0.01 | 0.00 | 41 | 1014.0 |
| 20260507183503 | 62 | 270 | 5.2 | 10.4 | 0.00 | 0.01 | 0.00 | 40 | 1014.0 |
| 20260507183004 | 61 | 264 | 7.0 | 13.0 | 0.00 | 0.01 | 0.00 | 37 | 1013.9 |
| 20260507182504 | 61 | 263 | 5.2 | 13.0 | 0.00 | 0.01 | 0.00 | 36 | 1014.0 |
| 20260507182004 | 61 | 304 | 3.5 | 9.6 | 0.00 | 0.01 | 0.00 | 38 | 1014.2 |
| 20260507181503 | 61 | 302 | 5.2 | 12.2 | 0.00 | 0.01 | 0.00 | 37 | 1014.1 |
| 20260507181003 | 61 | 300 | 3.5 | 12.2 | 0.00 | 0.01 | 0.00 | 38 | 1014.1 |
| 20260507180505 | 62 | 308 | 1.7 | 7.0 | 0.00 | 0.01 | 0.00 | 37 | 1014.2 |
| 20260507180004 | 61 | 317 | 1.7 | 7.0 | 0.00 | 0.01 | 0.00 | 35 | 1014.1 |
| 20260507175504 | 61 | 313 | 2.6 | 8.7 | 0.00 | 0.01 | 0.00 | 38 | 1014.3 |
| 20260507175004 | 61 | 291 | 5.2 | 13.0 | 0.00 | 0.01 | 0.00 | 37 | 1014.6 |
| 20260507174504 | 61 | 289 | 5.2 | 13.9 | 0.00 | 0.01 | 0.00 | 38 | 1014.6 |